Temp
20 20 20 20 20 20 20 20 19 19 19 19 19 19 19 19 18 18 18 18 18 18 18 18 18 17 17 17 17 17 17 17 17 17 17 17 17 17 17 18 18 18 18
20 20 20 20 19 21 20 19 19 19 19 19 20 20 19 19 18 18 18 18 18 18 18 18 17 17 17 17 17 17 18 18 17 17 17 17 17 17 17 18 18 18 17
20 20 20 20 20 20 20 19 19 19 19 19 19 19 19 18 18 18 18 18 18 18 18 18 17 17 17 17 17 17 18 17 17 17 17 17 17 17 17 18 18 17 17
19 19 19 20 20 20 20 20 19 19 19 19 19 19 18 18 18 18 18 18 18 17 17 17 17 17 16 16 16 17 17 17 17 17 17 17 17 17 17 17 17 17 17
19 19 19 20 19 19 20 19 19 19 19 19 19 19 19 18 18 18 18 17 18 17 17 17 17 16 17 16 16 17 17 17 17 17 17 17 17 17 17 17 17 17 17
19 19 19 19 19 19 19 19 19 19 19 19 19 18 18 18 18 17 17 18 18 18 17 17 17 17 17 17 16 17 17 17 17 17 17 17 17 17 17 17 16 16 16
19 19 19 19 19 19 19 19 19 19 19 19 18 18 18 18 18 17 18 17 18 18 17 17 17 17 17 18 17 17 17 17 17 17 17 17 17 17 17 16 16 16 16
18 19 19 19 19 19 19 19 19 19 19 19 18 18 18 18 18 17 18 17 17 18 17 17 17 17 17 17 18 18 18 17 17 17 17 17 17 17 16 16 15 15 15
18 19 19 19 19 19 19 19 19 19 18 18 18 18 18 18 17 17 17 17 17 18 17 17 17 17 17 17 18 18 17 17 17 17 17 16 17 17 16 16 15 15 15
18 18 19 18 18 19 19 19 18 18 18 18 18 18 18 17 17 17 17 16 17 17 17 17 17 17 16 16 17 16 16 16 16 16 16 16 16 16 16 16 15 15 15
18 18 18 18 18 18 18 18 18 18 18 17 18 18 17 17 17 17 17 17 17 17 17 17 16 16 16 16 16 16 16 16 16 16 16 16 16 16 16 15 15 14 14
18 18 18 18 17 17 17 18 17 17 17 17 17 17 17 17 17 17 17 17 17 17 17 16 16 16 16 15 15 16 15 15 15 16 15 16 16 15 15 15 15 15 14
18 18 18 17 17 17 17 17 17 17 17 17 17 17 18 17 17 17 17 17 16 16 16 16 16 16 15 15 15 15 15 15 16 16 16 16 15 15 15 15 15 14 14
18 18 18 18 17 16 16 16 16 16 16 16 17 17 17 16 16 17 17 17 17 16 16 16 15 15 15 15 15 15 15 15 15 15 15 15 16 15 16 16 15 14 14
18 18 17 17 17 16 16 15 16 16 16 16 16 16 17 16 16 17 17 17 18 17 17 16 15 15 15 15 14 15 15 15 15 14 14 14 14 15 15 15 15 15 14
18 18 17 17 16 16 15 16 16 16 16 16 16 16 16 16 16 16 16 17 17 17 17 16 15 15 14 14 14 14 15 15 14 14 14 14 14 14 14 14 14 15 14
18 18 17 17 16 16 15 15 16 16 16 15 15 16 16 17 17 17 16 16 17 17 16 16 15 15 14 14 14 14 14 14 14 14 14 14 14 14 14 14 13 13 14
17 17 17 16 16 16 15 15 15 16 16 15 15 15 17 17 17 17 16 16 16 16 16 16 15 14 14 14 14 14 14 14 14 14 14 13 14 14 13 13 13 13 13
17 17 16 16 16 16 15 15 15 16 15 15 16 16 16 17 17 17 16 16 16 16 16 16 15 15 14 14 14 14 14 14 14 13 13 13 13 13 13 13 12 12 12
16 16 16 16 16 15 15 15 15 15 15 16 16 16 17 17 17 17 16 16 16 16 16 15 15 15 15 14 14 14 14 13 13 13 13 13 13 13 13 13 13 13 12
16 16 16 16 16 15 15 14 15 15 15 16 16 17 17 17 17 17 16 16 16 16 16 15 15 15 14 14 13 13 13 13 13 14 14 13 13 13 13 13 13 13 13
8 15 16 16 16 15 15 15 15 15 15 16 17 17 17 17 17 17 17 16 16 16 16 15 15 14 14 14 13 13 11 13 13 14 14 14 14 14 14 13 13 13 13
0 4 9 15 15 15 16 15 15 15 15 15 15 16 16 17 17 17 17 16 16 16 16 15 15 14 13 14 14 14 11 11 13 13 14 14 14 14 14 14 14 13 13
-2 0 4 8 14 15 15 15 15 14 14 15 15 15 15 17 17 17 17 16 16 16 16 15 15 15 14 14 14 14 15 15 11 12 13 14 14 14 14 14 14 14 14
-3 -2 1 4 8 14 15 15 15 15 15 16 15 15 15 15 17 17 17 17 16 16 16 16 15 15 15 14 14 14 14 15 15 13 11 13 14 14 14 14 14 14 14
-4 -4 -2 1 3 8 12 15 15 15 15 16 15 14 14 15 16 17 17 17 17 16 16 16 16 15 15 15 15 15 15 15 14 14 11 12 14 15 15 15 15 15 15
Height
762 765 770 776 780 784 788 791 794 798 799 799 801 804 807 810 812 813 815 816 818 819 821 823 824 826 827 828 827 828 828 827 827 828 828 828 829 829 828 827 827 827 827
754 762 765 774 780 782 788 792 795 799 800 801 803 806 809 812 815 816 817 818 820 822 824 826 828 829 830 830 831 831 831 831 831 832 832 832 833 833 832 832 831 831 831
755 760 767 770 779 782 787 792 796 799 801 803 804 808 811 814 817 818 820 821 823 825 826 828 830 832 833 834 834 834 835 835 835 835 835 835 836 836 836 835 835 835 835
755 762 766 769 777 781 787 792 796 799 802 805 806 809 813 816 819 821 822 824 826 828 828 830 833 835 836 837 837 838 838 839 838 838 838 839 840 840 839 839 839 840 840
756 763 766 769 776 781 786 793 797 800 803 805 808 811 814 818 821 823 825 826 828 830 830 833 835 838 839 840 840 841 842 842 842 842 842 843 843 843 843 843 843 844 844
756 762 769 772 777 781 786 792 798 801 804 806 809 812 815 819 822 824 826 828 830 832 833 835 838 840 842 843 843 844 845 845 845 845 846 847 846 847 847 847 847 848 848
754 762 769 773 778 781 786 791 797 801 805 808 810 813 816 820 823 825 828 830 832 834 836 838 841 843 845 846 847 847 848 849 849 849 850 849 849 850 851 851 851 851 852
755 762 769 773 778 782 786 791 797 801 806 809 812 815 818 821 824 827 830 832 834 837 839 841 843 845 847 849 849 850 851 852 852 852 853 852 852 853 854 854 854 854 855
758 762 769 774 778 782 787 792 796 801 806 810 813 816 819 823 826 829 832 834 836 839 841 843 845 847 849 851 852 853 854 855 855 856 856 856 856 856 857 858 858 858 858
759 763 768 774 778 783 788 793 797 801 806 811 814 817 821 824 828 831 834 837 838 841 843 845 848 850 851 853 854 856 858 858 858 859 859 859 859 860 860 861 862 861 862
760 762 767 773 778 783 789 794 797 803 806 811 815 818 822 826 829 832 836 838 840 843 846 848 850 852 854 855 856 858 860 862 862 862 863 863 864 864 864 865 865 865 865
755 760 766 772 778 783 789 794 798 803 807 810 815 818 822 826 829 833 837 840 842 845 848 850 852 854 856 857 859 860 862 864 865 865 866 867 867 867 867 868 868 869 869
748 758 764 770 778 782 788 793 799 804 807 810 815 818 821 826 830 834 838 841 844 846 849 852 854 856 858 860 861 862 864 866 868 868 869 869 870 870 870 871 871 871 871
746 751 759 768 775 782 787 791 797 801 806 810 814 818 821 826 829 833 837 841 844 847 850 853 855 858 860 862 863 865 866 868 870 870 872 872 872 872 873 873 874 874 874
745 750 757 763 772 780 785 790 795 799 805 809 813 818 820 824 829 833 838 841 844 848 850 853 856 859 862 864 866 867 869 870 872 873 874 875 876 876 876 876 877 877 877
745 750 754 761 769 778 784 788 793 797 804 809 813 817 821 823 828 833 837 841 845 849 852 854 857 860 863 866 869 870 872 873 875 876 877 878 879 879 879 880 879 879 879
742 747 753 759 765 775 783 787 792 797 803 807 813 817 821 824 829 833 837 841 845 849 852 855 859 862 865 869 871 873 875 876 877 878 879 880 881 881 882 882 882 882 882
743 746 752 757 763 774 781 787 792 796 802 806 811 817 820 824 829 834 838 842 845 849 852 856 859 864 867 870 873 876 878 879 880 881 881 883 883 883 883 883 884 884 884
741 746 751 756 763 772 780 786 791 796 801 805 810 815 820 824 828 833 838 843 846 849 852 856 861 864 868 871 874 877 880 881 882 883 883 884 885 885 885 885 885 886 886
739 743 749 755 761 771 778 785 790 796 801 804 809 814 818 823 828 833 838 842 846 849 853 856 860 865 868 871 875 878 881 883 884 885 885 886 887 887 887 888 887 888 888
739 744 746 752 759 768 774 780 786 791 797 803 807 811 816 821 827 831 836 840 845 848 851 856 860 864 868 871 874 879 883 884 886 886 887 888 888 888 889 890 890 889 889
743 745 747 750 754 763 769 775 781 788 793 797 803 808 813 818 824 829 833 838 842 845 850 854 857 862 867 871 872 877 883 887 886 887 888 889 889 889 890 890 891 891 891
749 745 746 750 752 755 764 772 781 788 794 798 800 805 809 814 820 825 830 835 839 843 847 851 855 858 862 869 871 871 879 882 884 886 887 889 889 890 890 890 891 892 891
758 753 749 748 750 753 758 764 770 775 782 786 790 797 803 810 816 821 826 832 837 841 845 849 853 856 859 863 868 868 869 871 878 885 886 887 888 890 890 891 891 892 892
765 758 753 752 746 749 754 759 764 771 777 784 790 795 801 806 811 817 822 828 833 837 842 847 851 855 858 860 863 866 867 870 872 875 883 884 886 887 889 889 890 891 892
769 763 759 755 749 746 747 753 758 764 770 777 784 790 796 801 806 811 817 823 828 833 837 843 849 852 856 859 862 864 864 866 869 871 877 881 883 885 887 888 889 890 891
Wind_Speed
30 37 33 31 29 30 29 27 26 26 27 29 29 31 32 28 26 24 23 23 25 29 28 26 25 23 22 23 24 24 24 26 25 26 25 25 23 22 24 30 28 26 26
41 40 37 33 31 33 30 26 27 26 27 28 31 33 31 30 25 25 25 28 29 29 27 26 24 22 21 23 23 22 22 22 25 26 26 25 24 23 26 29 29 28 26
44 42 38 36 34 34 30 28 27 27 27 28 33 32 30 27 25 25 27 29 30 28 27 26 24 22 23 22 22 21 22 23 23 24 25 25 23 22 26 29 29 27 25
42 41 40 38 36 34 32 29 28 26 29 27 30 31 30 28 25 27 27 29 30 28 28 29 28 27 24 23 21 22 20 21 24 24 23 23 21 21 25 27 27 25 26
39 39 39 39 38 36 34 31 28 26 28 26 32 30 31 30 26 27 27 31 32 31 31 32 29 25 23 24 23 23 24 21 22 24 22 23 20 22 25 25 25 24 24
38 39 39 39 39 37 34 31 29 27 28 27 30 30 35 31 27 27 29 32 31 30 32 29 27 25 23 22 23 25 25 27 28 25 23 20 17 24 24 24 24 23 22
40 40 40 39 38 37 34 31 32 31 29 29 33 34 34 29 27 28 32 32 30 28 28 27 25 25 23 22 25 27 25 25 27 25 21 17 21 25 24 23 23 22 21
39 40 40 39 38 37 33 31 31 31 30 28 33 32 31 28 28 30 32 32 30 29 29 27 26 24 24 22 23 23 22 23 24 23 20 20 23 24 23 22 23 23 21
37 36 37 39 38 36 31 33 33 32 32 31 32 31 29 28 30 30 31 32 30 28 27 26 25 23 19 21 21 20 20 21 23 22 21 22 22 23 23 22 22 22 20
35 35 37 38 38 34 32 35 33 33 33 32 32 31 29 29 29 30 31 31 29 28 27 27 24 21 19 23 23 19 17 19 21 20 20 21 21 20 22 20 21 22 22
31 34 37 38 38 36 34 36 33 33 36 34 31 29 30 29 29 30 31 31 29 28 28 25 24 22 22 22 21 18 16 20 21 21 20 20 20 17 22 21 21 22 22
33 35 37 37 37 37 36 36 34 34 35 34 32 33 31 29 30 30 33 32 30 29 26 26 24 21 20 20 20 17 19 19 21 22 21 19 18 19 20 20 20 20 21
38 33 37 37 37 38 32 33 34 36 36 34 34 33 31 31 30 32 34 32 31 30 28 24 24 23 22 22 21 20 20 20 19 17 16 16 16 16 18 18 18 18 20
40 37 39 38 38 36 33 33 36 36 36 36 34 32 32 32 34 36 37 36 33 30 27 25 27 25 23 22 23 24 21 21 19 15 15 14 14 14 14 15 15 16 16
33 34 38 40 38 36 34 31 33 35 37 36 35 33 35 36 35 36 37 33 28 25 23 28 28 26 25 25 23 22 22 22 19 18 16 13 11 11 12 12 12 13 15
33 37 37 40 39 37 32 34 37 39 37 37 36 37 36 39 36 34 35 31 27 24 23 27 28 27 26 25 24 23 22 20 18 15 16 15 14 12 11 9 8 10 11
34 37 38 40 41 38 31 39 39 38 38 38 37 39 39 39 36 33 32 30 28 25 25 29 30 28 26 22 21 22 20 17 17 15 14 16 16 14 14 12 11 10 10
30 32 36 34 41 37 31 37 37 38 40 40 41 39 40 38 36 33 33 29 26 27 28 32 32 29 25 25 23 21 17 16 15 13 16 16 13 9 10 10 13 12 10
33 35 33 33 41 38 32 35 36 39 41 40 43 41 38 38 33 32 33 29 29 31 31 34 32 30 28 26 23 19 17 16 15 13 13 13 11 10 12 12 13 11 10
34 38 38 33 39 37 37 35 34 38 38 41 43 40 38 38 33 38 33 29 33 33 34 33 33 31 28 28 24 19 16 13 11 10 11 11 11 10 10 11 11 10 9
28 31 37 38 38 38 35 34 33 34 37 41 41 41 40 40 39 37 34 31 37 35 34 33 33 32 28 27 24 17 12 10 9 9 9 9 9 8 7 7 8 8 9
16 24 33 38 43 40 38 37 37 36 38 41 44 42 43 42 42 39 37 35 39 37 35 34 35 31 28 29 20 15 3 4 7 8 8 7 7 6 6 5 5 5 6
29 22 10 25 40 43 43 37 31 28 29 28 32 40 45 46 44 43 40 39 42 38 38 37 36 33 28 29 28 6 3 3 7 8 9 8 7 6 5 5 4 3 4
29 22 17 12 18 36 42 41 36 35 33 36 41 41 45 48 47 45 43 42 42 41 39 37 36 35 34 28 32 8 6 12 3 2 7 9 9 8 6 5 4 3 2
29 29 21 15 9 20 38 39 40 36 36 32 31 34 37 43 48 48 43 45 43 42 41 39 40 37 37 32 27 10 11 20 11 5 3 7 10 10 8 7 6 5 4
30 31 28 22 17 7 18 41 41 40 37 31 33 35 36 43 47 46 47 48 45 45 45 42 41 38 38 34 33 14 21 9 9 8 4 4 9 10 10 9 7 6 5
Wind_Direction
175 168 166 162 157 156 149 142 136 133 130 128 128 130 129 125 121 121 122 121 118 112 107 104 99 95 97 97 94 88 84 84 87 86 88 87 84 77 77 81 81 78 74
167 167 164 163 160 156 150 142 140 138 133 132 132 134 130 128 124 124 123 122 120 112 109 106 100 97 98 102 100 94 91 94 93 89 90 88 85 81 81 83 80 78 73
164 165 164 162 162 155 152 147 146 140 139 138 136 136 134 131 127 124 117 115 113 111 110 106 104 101 99 107 104 103 97 96 101 95 92 89 85 84 82 82 79 77 77
162 163 164 163 162 156 155 149 149 148 140 145 147 142 141 136 131 127 123 119 117 115 111 109 108 107 103 104 108 108 99 97 98 98 97 95 88 89 86 81 78 75 71
160 164 165 165 162 159 156 154 153 152 144 145 150 149 144 141 136 130 128 126 124 118 115 115 115 109 104 104 108 104 100 110 105 96 95 100 90 90 88 84 80 74 70
159 164 166 166 163 160 159 159 156 154 148 147 150 149 143 143 138 134 132 127 125 124 122 124 121 116 108 109 108 106 103 97 100 101 98 93 91 97 89 83 79 77 72
159 166 168 167 165 163 162 164 163 158 152 151 148 146 145 142 139 137 137 130 129 127 129 128 125 122 113 116 117 111 108 102 98 99 95 94 104 95 89 84 81 78 76
160 164 168 168 167 166 164 166 165 161 156 158 151 148 145 143 141 142 140 134 132 132 130 127 125 130 120 121 121 115 107 105 103 97 92 86 100 96 90 86 82 79 76
162 160 165 168 168 167 167 166 162 161 161 160 154 148 148 145 145 146 142 135 135 135 134 134 129 131 133 131 127 123 107 103 106 101 95 86 94 95 92 86 83 79 76
161 164 164 167 169 168 167 165 163 165 161 157 156 152 147 147 148 147 145 138 140 137 136 134 131 128 136 131 134 127 111 108 107 102 95 89 88 93 98 89 83 82 79
166 167 166 166 168 168 164 166 164 163 162 160 158 155 151 151 153 150 148 144 141 137 138 133 127 123 133 142 140 136 130 116 107 101 98 93 89 94 95 93 88 83 80
170 171 169 165 167 167 165 167 164 163 162 160 158 155 154 155 157 154 152 147 143 138 138 134 132 130 131 138 138 135 131 127 114 106 97 95 97 88 94 89 92 88 82
171 169 172 166 168 166 161 160 164 165 164 162 162 161 158 160 158 157 153 149 142 141 142 139 141 137 131 134 137 129 132 131 122 120 115 104 94 93 89 86 85 88 87
174 172 168 166 167 164 163 163 166 166 167 165 167 167 164 162 163 160 157 154 148 150 146 145 148 142 136 133 131 128 123 138 127 128 122 120 112 93 96 93 86 87 88
171 168 170 163 165 167 167 167 168 169 172 170 170 170 166 164 164 163 163 162 162 157 148 156 152 144 139 134 131 132 127 128 122 117 123 127 116 116 98 96 100 90 85
176 172 166 168 165 169 171 171 172 176 178 174 174 169 167 163 162 163 169 170 169 168 155 153 153 147 141 140 135 131 132 129 122 120 118 107 113 105 109 102 112 105 93
179 173 171 167 165 170 173 176 177 178 181 175 172 170 169 166 163 165 166 164 163 161 159 156 153 148 144 143 139 139 134 131 125 117 122 125 117 113 110 96 96 112 102
179 173 169 166 167 172 173 176 176 178 178 174 172 174 173 168 165 166 166 164 162 162 162 160 154 151 147 144 138 137 135 134 129 120 123 129 132 116 115 111 101 97 97
180 174 171 165 170 177 173 175 174 178 177 175 175 178 178 171 169 174 169 166 163 159 158 158 156 152 149 147 144 141 139 136 134 125 122 137 131 113 110 107 121 109 98
185 179 174 170 172 179 177 173 174 177 181 179 181 182 181 175 175 170 174 171 167 161 160 160 159 155 151 151 148 147 145 146 146 139 132 129 128 122 109 104 114 113 104
183 180 175 173 176 178 175 171 175 177 183 185 187 185 182 179 179 181 181 177 174 167 165 163 162 159 156 161 151 146 153 154 153 152 149 145 138 130 120 111 106 102 101
7 185 184 179 179 183 180 182 181 181 186 187 190 190 186 186 185 186 186 181 180 174 171 170 167 160 163 166 155 135 122 127 176 171 168 162 156 146 135 125 119 110 101
2 5 350 196 184 181 185 183 181 181 185 188 187 194 193 191 190 190 190 187 184 181 177 173 172 169 165 170 169 139 127 184 153 192 197 190 185 172 157 143 140 137 118
354 354 353 335 201 188 184 182 179 179 179 192 192 193 193 196 194 196 194 192 188 186 182 180 179 176 172 174 183 205 199 152 160 146 202 200 202 204 201 191 191 177 148
359 1 0 336 347 202 188 188 184 187 192 190 188 189 191 195 198 197 201 195 194 192 188 185 183 185 184 182 187 185 171 162 158 137 148 186 203 209 209 203 209 212 204
3 6 7 357 347 341 210 189 191 190 189 182 182 183 187 195 198 201 199 197 197 195 192 190 190 192 192 193 193 194 173 165 176 151 125 157 185 200 207 206 204 200 200